When you browse on this site, cookies collect data to enhance your experience and personalize the content and advertising you see.
Visit our Privacy Policy to learn more. By continuing to use the site, you agree to this use of cookies and data.

Hourly Weather Stepanakert

Today, 13 August, Thursday

Time Temperature Precipitation Wind Pressure Humidity
00:00 +22°C° 0 mm 1 mps 691 mmHg 63%
01:00 +21°C° 0 mm 1 mps 691 mmHg 64%
02:00 +21°C° 0 mm 1 mps 690 mmHg 65%
03:00 +20°C° 0 mm 1 mps 690 mmHg 69%
04:00 +21°C° 0 mm 1 mps 691 mmHg 69%
05:00 +19°C° 0 mm 0 mps 691 mmHg 68%
06:00 +19°C° 0 mm 0 mps 691 mmHg 68%
07:00 +23°C° 0 mm 1 mps 691 mmHg 62%
08:00 +25°C° 0 mm 1 mps 691 mmHg 56%
09:00 +26°C° 0 mm 2 mps 691 mmHg 50%
10:00 +27°C° 0 mm 2 mps 691 mmHg 48%
11:00 +28°C° 0 mm 3 mps 690 mmHg 46%
12:00 +29°C° 0 mm 3 mps 690 mmHg 43%
13:00 +29°C° 0 mm 3 mps 690 mmHg 43%
14:00 +29°C° 0 mm 3 mps 689 mmHg 42%
15:00 +30°C° 0 mm 3 mps 688 mmHg 42%
16:00 +29°C° 0 mm 3 mps 689 mmHg 44%
17:00 +28°C° 0 mm 2 mps 689 mmHg 47%
18:00 +28°C° 0 mm 2 mps 689 mmHg 49%
19:00 +27°C° 0 mm 2 mps 689 mmHg 53%
20:00 +25°C° 0 mm 1 mps 689 mmHg 57%
21:00 +24°C° 0 mm 1 mps 689 mmHg 60%
22:00 +23°C° 0 mm 1 mps 689 mmHg 62%
23:00 +23°C° 0 mm 1 mps 689 mmHg 64%

Tomorrow, 14 August, Friday

Time Temperature Precipitation Wind Pressure Humidity
00:00 +22°C° 0 mm 1 mps 689 mmHg 66%
01:00 +22°C° 0 mm 1 mps 689 mmHg 68%
02:00 +22°C° 0 mm 1 mps 689 mmHg 69%
03:00 +21°C° 0 mm 1 mps 689 mmHg 71%
04:00 +21°C° 0 mm 1 mps 689 mmHg 72%
05:00 +22°C° 0 mm 1 mps 689 mmHg 72%
06:00 +22°C° 0 mm 1 mps 690 mmHg 73%
07:00 +23°C° 0 mm 1 mps 690 mmHg 66%
08:00 +24°C° 0 mm 2 mps 690 mmHg 60%
09:00 +26°C° 0 mm 2 mps 690 mmHg 54%
10:00 +27°C° 0 mm 2 mps 690 mmHg 50%
11:00 +27°C° 0 mm 3 mps 689 mmHg 46%
12:00 +28°C° 0 mm 3 mps 689 mmHg 42%
13:00 +29°C° 0 mm 3 mps 689 mmHg 40%
14:00 +29°C° 0 mm 3 mps 688 mmHg 38%
15:00 +30°C° 0 mm 3 mps 688 mmHg 37%
16:00 +29°C° 0 mm 3 mps 688 mmHg 39%
17:00 +28°C° 0 mm 3 mps 688 mmHg 41%
18:00 +27°C° 0 mm 3 mps 688 mmHg 43%
19:00 +26°C° 0 mm 2 mps 688 mmHg 48%
20:00 +24°C° 0 mm 2 mps 688 mmHg 53%
21:00 +23°C° 0 mm 1 mps 688 mmHg 58%
22:00 +22°C° 0 mm 1 mps 688 mmHg 58%
23:00 +22°C° 0 mm 1 mps 688 mmHg 58%

Day after tomorrow, 15 August, Saturday

Time Temperature Precipitation Wind Pressure Humidity
00:00 +22°C° 0 mm 1 mps 688 mmHg 59%
01:00 +22°C° 0 mm 1 mps 688 mmHg 61%
02:00 +21°C° 0 mm 1 mps 688 mmHg 63%
03:00 +21°C° 0 mm 1 mps 688 mmHg 65%
04:00 +21°C° 0 mm 1 mps 688 mmHg 67%
05:00 +21°C° 0 mm 1 mps 688 mmHg 69%
06:00 +20°C° 0 mm 1 mps 688 mmHg 71%
07:00 +22°C° 0 mm 1 mps 688 mmHg 65%
08:00 +24°C° 0 mm 2 mps 689 mmHg 58%
09:00 +25°C° 0 mm 2 mps 689 mmHg 51%
10:00 +26°C° 0 mm 2 mps 689 mmHg 49%
11:00 +26°C° 0 mm 2 mps 689 mmHg 48%
12:00 +27°C° 0 mm 2 mps 689 mmHg 46%
13:00 +27°C° 0 mm 3 mps 689 mmHg 47%
14:00 +26°C° 0 mm 3 mps 689 mmHg 48%
15:00 +26°C° 0 mm 4 mps 689 mmHg 49%
16:00 +25°C° 0 mm 4 mps 689 mmHg 54%
17:00 +24°C° 0 mm 3 mps 689 mmHg 59%
18:00 +22°C° 0 mm 3 mps 689 mmHg 64%
19:00 +21°C° 0 mm 3 mps 689 mmHg 70%
20:00 +20°C° 0 mm 2 mps 690 mmHg 76%
21:00 +19°C° 0 mm 2 mps 690 mmHg 82%
22:00 +19°C° 0 mm 2 mps 690 mmHg 83%
23:00 +18°C° 0 mm 2 mps 690 mmHg 85%

16 August, Sunday

Time Temperature Precipitation Wind Pressure Humidity
00:00 +19°C° 0 mm 1 mps 690 mmHg 86%
01:00 +19°C° 0 mm 1 mps 690 mmHg 87%
02:00 +19°C° 0 mm 1 mps 690 mmHg 88%
03:00 +19°C° 0 mm 1 mps 690 mmHg 89%
04:00 +19°C° 0.1 mm 1 mps 690 mmHg 89%
05:00 +19°C° 0.1 mm 1 mps 690 mmHg 90%
06:00 +18°C° 0.1 mm 2 mps 690 mmHg 90%
07:00 +19°C° 0.2 mm 1 mps 690 mmHg 87%
08:00 +19°C° 0.2 mm 1 mps 690 mmHg 84%
09:00 +19°C° 0.2 mm 1 mps 691 mmHg 81%
10:00 +20°C° 0 mm 1 mps 690 mmHg 78%
11:00 +19°C° 0 mm 2 mps 690 mmHg 76%
12:00 +20°C° 0 mm 2 mps 690 mmHg 73%
13:00 +21°C° 0 mm 2 mps 690 mmHg 70%
14:00 +21°C° 0 mm 2 mps 690 mmHg 67%
15:00 +23°C° 0 mm 2 mps 690 mmHg 64%
16:00 +23°C° 0 mm 2 mps 690 mmHg 65%
17:00 +21°C° 0 mm 2 mps 690 mmHg 67%
18:00 +21°C° 0 mm 2 mps 689 mmHg 69%
19:00 +21°C° 0 mm 2 mps 690 mmHg 70%
20:00 +21°C° 0 mm 1 mps 690 mmHg 71%
21:00 +21°C° 0 mm 1 mps 690 mmHg 72%
22:00 +20°C° 0.1 mm 1 mps 690 mmHg 74%
23:00 +20°C° 0.1 mm 1 mps 690 mmHg 77%

17 August, Monday

Time Temperature Precipitation Wind Pressure Humidity
00:00 +17°C° 0.1 mm 0 mps 690 mmHg 79%
01:00 +17°C° 0.1 mm 0 mps 690 mmHg 81%
02:00 +17°C° 0.1 mm 0 mps 690 mmHg 82%
03:00 +19°C° 0.1 mm 1 mps 690 mmHg 84%
04:00 +18°C° 0.1 mm 1 mps 690 mmHg 84%
05:00 +18°C° 0.1 mm 1 mps 690 mmHg 84%
06:00 +18°C° 0.1 mm 1 mps 691 mmHg 84%
07:00 +19°C° 0 mm 1 mps 691 mmHg 81%
08:00 +18°C° 0 mm 2 mps 691 mmHg 78%
09:00 +19°C° 0 mm 2 mps 691 mmHg 75%
10:00 +19°C° 0 mm 2 mps 692 mmHg 73%
11:00 +20°C° 0 mm 2 mps 692 mmHg 72%
12:00 +20°C° 0 mm 2 mps 692 mmHg 70%
13:00 +20°C° 0.1 mm 2 mps 691 mmHg 74%
14:00 +19°C° 0.1 mm 2 mps 691 mmHg 78%
15:00 +18°C° 0.1 mm 2 mps 691 mmHg 82%
16:00 +18°C° 0 mm 2 mps 691 mmHg 81%
17:00 +18°C° 0 mm 2 mps 691 mmHg 81%
18:00 +18°C° 0 mm 2 mps 691 mmHg 81%
19:00 +19°C° 0 mm 1 mps 691 mmHg 81%
20:00 +19°C° 0 mm 1 mps 692 mmHg 81%
21:00 +18°C° 0 mm 1 mps 692 mmHg 81%
22:00 +18°C° 0 mm 1 mps 692 mmHg 81%
23:00 +18°C° 0 mm 1 mps 692 mmHg 81%

18 August, Tuesday

Time Temperature Precipitation Wind Pressure Humidity
00:00 +18°C° 0 mm 1 mps 692 mmHg 81%
01:00 +18°C° 0 mm 1 mps 692 mmHg 80%
02:00 +16°C° 0 mm 0 mps 692 mmHg 80%
03:00 +16°C° 0 mm 0 mps 692 mmHg 79%
04:00 +16°C° 0 mm 0 mps 692 mmHg 78%
05:00 +16°C° 0 mm 0 mps 692 mmHg 78%
06:00 +16°C° 0 mm 0 mps 692 mmHg 77%
07:00 +19°C° 0 mm 1 mps 692 mmHg 71%
08:00 +20°C° 0 mm 1 mps 692 mmHg 66%
09:00 +20°C° 0 mm 2 mps 692 mmHg 60%
10:00 +21°C° 0 mm 2 mps 691 mmHg 58%
11:00 +23°C° 0 mm 2 mps 691 mmHg 56%
12:00 +24°C° 0 mm 3 mps 691 mmHg 54%
13:00 +24°C° 0 mm 2 mps 690 mmHg 53%
14:00 +24°C° 0 mm 2 mps 690 mmHg 53%
15:00 +25°C° 0 mm 2 mps 689 mmHg 52%
16:00 +24°C° 0 mm 2 mps 689 mmHg 54%
17:00 +24°C° 0 mm 2 mps 689 mmHg 55%
18:00 +24°C° 0 mm 1 mps 689 mmHg 56%
19:00 +22°C° 0 mm 1 mps 689 mmHg 61%
20:00 +21°C° 0 mm 1 mps 689 mmHg 66%
21:00 +19°C° 0 mm 1 mps 689 mmHg 72%
22:00 +19°C° 0 mm 1 mps 688 mmHg 72%
23:00 +19°C° 0 mm 1 mps 688 mmHg 73%
Show more